TimeCDT,TemperatureF,Dew PointF,Humidity,Sea Level PressureIn,VisibilityMPH,Wind Direction,Wind SpeedMPH,Gust SpeedMPH,PrecipitationIn,Events,Conditions,WindDirDegrees,DateUTC
12:15 AM,55.6,48.2,76,29.92,10.0,WNW,5.8,-,N/A,,Mostly Cloudy,290,2012-10-15 05:15:00
12:35 AM,55.4,47.8,76,29.92,10.0,WNW,8.1,-,N/A,,Clear,290,2012-10-15 05:35:00
12:55 AM,55.4,47.8,76,29.92,10.0,West,8.1,-,N/A,,Clear,280,2012-10-15 05:55:00
1:15 AM,55.9,48.4,76,-9999,10.0,West,8.1,-,N/A,,Clear,280,2012-10-15 06:15:00
1:35 AM,55.4,48.6,78,29.92,10.0,West,6.9,-,N/A,,Clear,280,2012-10-15 06:35:00
1:55 AM,55.4,48.6,78,29.93,10.0,West,6.9,-,N/A,,Clear,270,2012-10-15 06:55:00
2:15 AM,54.5,48.6,80,29.92,10.0,West,4.6,-,N/A,,Clear,270,2012-10-15 07:15:00
2:35 AM,53.2,48.4,84,29.92,10.0,WSW,5.8,-,N/A,,Clear,250,2012-10-15 07:35:00
2:55 AM,51.8,48.4,88,29.92,10.0,WSW,5.8,-,N/A,,Clear,250,2012-10-15 07:55:00
3:15 AM,51.1,48.6,91,29.92,10.0,WSW,4.6,-,N/A,,Clear,240,2012-10-15 08:15:00
3:35 AM,51.1,49.1,93,29.92,10.0,WSW,5.8,-,N/A,,Clear,240,2012-10-15 08:35:00
3:55 AM,50.9,48.7,92,29.92,10.0,West,5.8,-,N/A,,Clear,260,2012-10-15 08:55:00
4:15 AM,50.9,48.9,93,29.92,10.0,West,4.6,-,N/A,,Clear,260,2012-10-15 09:15:00
4:35 AM,50.0,48.2,94,29.93,10.0,West,3.5,-,N/A,,Clear,260,2012-10-15 09:35:00
4:55 AM,49.8,48.2,94,29.93,10.0,West,3.5,-,N/A,,Clear,260,2012-10-15 09:55:00
5:15 AM,49.5,47.8,94,29.94,10.0,WSW,4.6,-,N/A,,Clear,250,2012-10-15 10:15:00
5:35 AM,49.3,48.0,95,29.94,10.0,West,4.6,-,N/A,,Clear,260,2012-10-15 10:35:00
5:55 AM,49.3,48.0,95,29.94,7.0,WSW,4.6,-,N/A,,Clear,250,2012-10-15 10:55:00
6:15 AM,48.6,47.5,96,29.95,7.0,WSW,4.6,-,N/A,,Clear,250,2012-10-15 11:15:00
6:35 AM,48.2,47.3,97,29.96,7.0,West,3.5,-,N/A,,Clear,260,2012-10-15 11:35:00
6:55 AM,48.2,47.3,97,29.96,7.0,West,4.6,-,N/A,,Clear,260,2012-10-15 11:55:00
7:15 AM,48.2,47.3,97,29.97,7.0,West,4.6,-,N/A,,Clear,260,2012-10-15 12:15:00
7:35 AM,48.7,47.7,96,29.97,7.0,West,4.6,-,N/A,,Clear,260,2012-10-15 12:35:00
7:55 AM,50.2,48.6,94,29.97,7.0,West,4.6,-,N/A,,Clear,260,2012-10-15 12:55:00
8:15 AM,52.3,49.3,89,29.98,10.0,West,6.9,-,N/A,,Clear,280,2012-10-15 13:15:00
8:35 AM,53.8,48.6,82,29.99,10.0,WNW,6.9,-,N/A,,Clear,300,2012-10-15 13:35:00
8:55 AM,55.2,48.4,78,29.99,10.0,NW,6.9,-,N/A,,Clear,310,2012-10-15 13:55:00
9:15 AM,56.3,48.9,76,30.00,10.0,WNW,5.8,-,N/A,,Clear,300,2012-10-15 14:15:00
9:35 AM,57.0,49.1,75,30.01,10.0,NW,6.9,-,N/A,,Clear,310,2012-10-15 14:35:00
9:55 AM,58.1,48.7,71,30.01,10.0,WNW,8.1,-,N/A,,Clear,290,2012-10-15 14:55:00
10:15 AM,59.4,48.0,66,30.02,10.0,NW,6.9,-,N/A,,Clear,320,2012-10-15 15:15:00
10:35 AM,61.2,48.0,62,30.02,10.0,NW,6.9,-,N/A,,Clear,310,2012-10-15 15:35:00
10:55 AM,61.7,43.9,52,30.01,10.0,NW,6.9,-,N/A,,Clear,310,2012-10-15 15:55:00
11:15 AM,62.6,41.4,46,30.02,10.0,NW,9.2,19.6,N/A,,Clear,320,2012-10-15 16:15:00
11:35 AM,63.5,41.5,45,30.02,10.0,NW,10.4,-,N/A,,Clear,310,2012-10-15 16:35:00
11:55 AM,63.9,39.6,41,30.02,10.0,NNW,6.9,16.1,N/A,,Clear,330,2012-10-15 16:55:00
12:15 PM,64.4,39.9,41,30.02,10.0,NNW,11.5,-,N/A,,Clear,330,2012-10-15 17:15:00
12:35 PM,65.3,41.2,41,30.01,10.0,NW,8.1,-,N/A,,Clear,310,2012-10-15 17:35:00
12:55 PM,65.5,41.4,41,30.01,10.0,NW,10.4,16.1,N/A,,Clear,310,2012-10-15 17:55:00
1:15 PM,65.5,41.5,42,30.00,10.0,WNW,11.5,-,N/A,,Clear,300,2012-10-15 18:15:00
1:35 PM,67.1,42.6,41,29.99,10.0,NW,8.1,16.1,N/A,,Clear,320,2012-10-15 18:35:00
1:55 PM,66.0,41.9,41,29.99,10.0,NNW,9.2,-,N/A,,Clear,340,2012-10-15 18:55:00
2:15 PM,66.7,42.6,42,29.99,10.0,WNW,11.5,-,N/A,,Clear,290,2012-10-15 19:15:00
2:35 PM,67.1,42.4,41,29.98,10.0,West,9.2,-,N/A,,Clear,280,2012-10-15 19:35:00
2:55 PM,67.1,42.1,40,29.98,10.0,WNW,9.2,-,N/A,,Clear,300,2012-10-15 19:55:00
3:15 PM,67.1,41.9,40,29.99,10.0,WNW,9.2,-,N/A,,Clear,290,2012-10-15 20:15:00
3:35 PM,67.1,41.7,40,29.98,10.0,NW,9.2,-,N/A,,Clear,320,2012-10-15 20:35:00
3:55 PM,67.3,41.9,40,29.98,10.0,NW,8.1,-,N/A,,Clear,310,2012-10-15 20:55:00
4:15 PM,67.1,41.5,39,29.98,10.0,NW,4.6,-,N/A,,Clear,320,2012-10-15 21:15:00
4:35 PM,67.1,42.6,41,29.98,10.0,NW,5.8,-,N/A,,Clear,320,2012-10-15 21:35:00
4:55 PM,65.3,42.8,44,29.97,10.0,NW,3.5,-,N/A,,Clear,320,2012-10-15 21:55:00
5:15 PM,66.9,43.3,42,29.97,10.0,NW,3.5,-,N/A,,Clear,320,2012-10-15 22:15:00
5:35 PM,65.5,43.0,44,29.97,10.0,NW,6.9,-,N/A,,Clear,310,2012-10-15 22:35:00
5:55 PM,64.6,42.8,45,29.97,10.0,NW,3.5,-,N/A,,Clear,320,2012-10-15 22:55:00
6:15 PM,63.5,44.1,49,29.97,10.0,Calm,Calm,-,N/A,,Clear,0,2012-10-15 23:15:00
6:35 PM,58.5,45.1,61,29.97,10.0,Calm,Calm,-,N/A,,Clear,0,2012-10-15 23:35:00
6:55 PM,60.8,43.9,54,29.97,7.0,Calm,Calm,-,N/A,,Clear,0,2012-10-15 23:55:00
7:15 PM,53.1,45.0,74,29.97,10.0,Calm,Calm,-,N/A,,Clear,0,2012-10-16 00:15:00
7:35 PM,52.7,45.7,77,29.97,10.0,Calm,Calm,-,N/A,,Clear,0,2012-10-16 00:35:00
7:55 PM,52.9,45.9,77,29.97,10.0,Calm,Calm,-,N/A,,Clear,0,2012-10-16 00:55:00
8:15 PM,52.3,46.2,80,29.97,10.0,Calm,Calm,-,N/A,,Clear,0,2012-10-16 01:15:00
9:15 PM,49.8,45.3,84,29.99,10.0,Calm,Calm,-,N/A,,Clear,0,2012-10-16 02:15:00
9:35 PM,48.4,45.3,89,29.99,7.0,Calm,Calm,-,N/A,,Clear,0,2012-10-16 02:35:00
10:15 PM,47.3,45.9,95,29.99,10.0,Calm,Calm,-,N/A,,Clear,0,2012-10-16 03:15:00
11:15 PM,46.0,44.4,94,29.99,7.0,Calm,Calm,-,N/A,,Clear,0,2012-10-16 04:15:00